Flag for Colombia Weather past 2 weeks in Manizales, Colombia

Now
81 °F

Partly sunny.


Feels Like: 82 °F
Forecast: 55 / 78 °F
Wind: 2 mph from North

Location: Pereira / Matecana

Current Time: Aug 30, 2015 at 1:20:38 PM

Latest Report: Aug 30, 2015 at 1:00 PM


Visibility: N/A

Pressure: 30.03 "Hg (23.54 "Hg at 2139m altitude)

Humidity: 58%

Dew point: 64 °F

Location of ManizalesLocation

Historic Weather in Manizales — Graph

°F

Manizales temperature yesterday

Maximum temperature yesterday: 88 °F (at 3:00 PM)
Minimum temperature yesterday: 66 °F (at 5:00 AM)
Average temperature yesterday: 77 °F

Past Weeks' High & Low Weather Summary

 TemperatureHumidityPressure
High88 °F (Aug 20, 2:00 PM)100% (Aug 21, 7:00 AM)30.13 "Hg (Aug 21, 7:00 AM)
Low64 °F (Aug 30, 5:00 AM)38% (Aug 29, 3:00 PM)29.89 "Hg (Aug 20, 4:00 PM)
Average74 °F72%30.02 "Hg
* Reported Aug 15 12:00 Noon — Aug 30 12:00 Noon, Manizales, Weather by CustomWeather, © 2015

Note: Actual official high and low records may vary slightly from our data, if they occured in-between our weather recording intervals... More about our weather records

Advertising

Manizales weather history for previous 24 hours

 ConditionsComfort  
Time TempWeatherWind HumidityBarometerVisibility
12:00 PM
Sun, Aug 30
81 °FScattered clouds.3 mph54%30.06 "HgN/A
11:00 AM79 °FScattered clouds.6 mph61%30.07 "HgN/A
10:00 AM77 °FScattered clouds.5 mph65%30.09 "HgN/A
9:00 AM72 °FScattered clouds.3 mph73%30.09 "HgN/A
8:00 AM72 °FScattered clouds.2 mph73%30.08 "HgN/A
7:00 AM66 °FScattered clouds.5 mph78%30.06 "HgN/A
6:00 AM64 °FScattered clouds.8 mph83%30.03 "HgN/A
5:00 AM64 °FPassing clouds.9 mph78%30.02 "HgN/A
12:00 AM70 °FPassing clouds.9 mph73%30.05 "HgN/A
11:00 PM
Sat, Aug 29
70 °FPassing clouds.8 mph78%30.06 "HgN/A
10:00 PM72 °FPassing clouds.3 mph73%30.03 "HgN/A
9:00 PM73 °FPassing clouds.3 mph74%30.00 "HgN/A
8:00 PM75 °FPassing clouds.3 mph65%29.97 "HgN/A
7:00 PM81 °FPassing clouds.7 mph48%29.94 "HgN/A
6:00 PM84 °FScattered clouds.9 mph43%29.91 "HgN/A
5:00 PM86 °FScattered clouds.14 mph40%29.89 "HgN/A
4:00 PM88 °FScattered clouds.12 mph38%29.89 "HgN/A
3:00 PM88 °FScattered clouds.8 mph38%29.91 "HgN/A
2:00 PM86 °FScattered clouds.9 mph52%29.95 "HgN/A
1:00 PM86 °FPassing clouds.7 mph52%29.98 "HgN/A
Weather by CustomWeather, © 2015

See weather overviewHow to use our weather pages